Regional Weather Roundup
Issued by NWS Portland, ME

Current Version | Previous Version | Graphics & Text | Print | Product List | Glossary On
Versions: 1 2 3 4 5 6 7 8 9 10 11 12 13 14 15 16 17 18 19 20 21 22 23 24 25 26 27 28 29 30 31 32 33 34 35 36 37 38 39 40 41 42 43 44 45 46 47 48 49 50
000
ASUS41 KGYX 302210
RWRGYX
WEATHER ROUNDUP FOR MAINE AND NEW HAMPSHIRE
NATIONAL WEATHER SERVICE GRAY ME
600 PM EDT TUE SEP 30 2014

MEZ002-005-006-010-012-015-018-020-021-024-026-027-029-302300-
MAINE

CITY           SKY/WX    TMP DP  RH WIND       PRES   REMARKS
PORTLAND       CLOUDY    59  53  80 CALM      30.03S
SANFORD        CLOUDY    57  52  82 NE5       30.03S
BAR HARBOR     CLOUDY    55  55 100 N8        30.04S
WISCASSET      CLOUDY    59  52  77 CALM      30.05R
ROCKLAND       CLOUDY    55  52  88 NE7       30.03R
FRYEBURG       CLOUDY    60  53  77 CALM      30.04S
LEWISTONAUBURN PTCLDY    59  50  72 NE3       30.04R
AUGUSTA        CLOUDY    56  50  80 NE5       30.05R
WATERVILLE     CLOUDY    57  48  72 NE5       30.00R
BANGOR         CLOUDY    59  50  72 NE3       30.05R
GREENVILLE       N/A     55  50  83 CALM      30.03R
MILLINOCKET    CLEAR     58  50  75 N5        30.07R
HOULTON        CLEAR     54  48  80 N3        30.06R
PRESQUE ISLE   CLOUDY    48  43  81 N7        30.09R
FRENCHVILLE    CLOUDY    45  43  93 CALM      30.09R
CARIBOU        CLOUDY    49  45  86 CALM      30.08S
$$

NHZ002-005-008-009-011-012-014-302300-
NEW HAMPSHIRE

CITY           SKY/WX    TMP DP  RH WIND       PRES   REMARKS
PORTSMOUTH     CLOUDY    57  54  87 NE5       30.01S
ROCHESTER      CLOUDY    59  54  83 N3        30.02S
NASHUA         CLOUDY    59  56  89 N5        30.02S
MANCHESTER     MOCLDY    60  53  77 N5        30.00S
CONCORD        CLOUDY    60  54  80 E5        30.02R
LACONIA        CLOUDY    59  52  77 NE6       30.02R
PLYMOUTH       CLOUDY    60  57  89 CALM      30.02S
BERLIN         PTCLDY    63  53  70 S8        30.01R
WHITEFIELD     MOCLDY    67  54  63 N6        29.99R
JAFFREY        CLOUDY    58  55  90 VRB3      30.02S
LEBANON        MOCLDY    62  53  72 NE7       30.00S
MT WASHINGTON  MOCLDY    43  41  93 NW1         N/A
$$

VTZ005-007-008-302300-
VERMONT

CITY           SKY/WX    TMP DP  RH WIND       PRES   REMARKS
ST JOHNSBURY     N/A     65  55  70 MISG      29.98R
MONTPELIER     CLOUDY    61  55  81 CALM      30.05R
BURLINGTON     MOCLDY    67  56  67 E6        29.97R
$$

MAZ007-012-024-CTZ003-RIZ002-NYZ038-NYZ072-302300-
SOUTHERN NEW ENGLAND AND NY

CITY           SKY/WX    TMP DP  RH WIND       PRES   REMARKS
BOSTON         LGT RAIN  56  54  93 N9        30.02R
WORCESTER      FOG       54  54 100 NE5       30.01R VSB 1/2
NANTUCKET      CLOUDY    62  61  96 N16       29.95R FOG
PROVIDENCE     DRIZZLE   57  55  93 NE12      30.01R
HARTFORD       CLOUDY    63  55  75 NE8       29.97S
ALBANY         MOCLDY    69  56  62 SE5       29.94R
NEW YORK CITY  CLOUDY    66  59  78 NE9       29.93S
$$

ANZ081-ANZ082-ANZ150-NHZ014-MEZ023>029-302300-
COASTAL MARINE OBSERVATIONS

STATION/POSITION TIME  TEMP    WIND        PRES    WAVE
                       AIR SEA DIR/SP/G            HT/PER
                 (UTC) (F)     (DEG/KT/KT) (MB)    (FT/S)
MOUNT DESERT ROC 2200   53                 1016.7R
MATINICUS ROCK   2200           50/ 11/ 12 1016.6R
PORTLAND WX BUOY 2150   57 59   70/  6/  6 1016.4F   3/ 6
WELLS            2100   58 57   40/  4/  5 1015.8F
ISLE OF SHOALS   2200   57      30/ 14/ 15 1015.9R
JEFFREYS LEDGE   2121      58                N/A     5/ 7
CASHES LEDGE BUO 2150   55 60              1014.9F   4/ 6
$$

.............KEY..............
   WCI - WIND CHILL
   TC  - TEMPERATURE IN CELSIUS
   VSB - VISIBILITY IN MILES
   HX  - HEAT INDEX
   FAIR- INDICATES FEW OR NO CLOUDS BELOW 12,000 FT, WITH NO
         SIGNIFICANT WEATHER AND/OR OBSTRUCTIONS TO VISIBILITY.




USA.gov is the U.S. government's official web portal to all federal, state and local government web resources and services.